← Previous May 29, 2023 6:56 PM

SXUS54 KWBC 240509
OSOGT 
:SHEF ENCODED 6-MINUTE NOS MET DATA
:NATIONAL WATER LEVEL OBSERVATION NETWORK (NWLON)
:TA(AIR TEMP DEG F)  SLP(SEA LEVEL PRESSURE INCHES)
:UD(WIND DIRECTION WHOLE DEGREES) US(WIND SPEED MPH)
:TW(WATER TEMP DEG F) UG(WIND GUSTS MPH) WC(CONDUCTIVITY uMHOS/CM)
:-9999 (MISSING VALUES)
:TIME ZONE IS LST
:PROVIDED BY DOC/NOAA/NOS/CO-OPS, (301) 713-2540
:[email protected]
.A OBGN6 20230523 ES DH2354/TAIRG    56/UGIRG -9999/PLIRG 30.02/UDIRG -9999/USIRG -9999/TWIRG -9999/WCIRG -9999
.A ALXN6 20230523 ES DH2354/TAIRP -9999/UGIRP -9999/PLIRP 30.04/UDIRP -9999/USIRP -9999/TWIRP    50/WCIRP -9999
.E ALXN6 20230523 ES DH2348/PLIRG/DIN06/30.04/30.04
.E ALXN6 20230523 ES DH2348/TWIRG/DIN06/   50/   50
.A AGCM4 20230523 ES DH2354/TAIRG    56/UGIRG -9999/PLIRG 30.09/UDIRG -9999/USIRG -9999/TWIRG    53/WCIRG -9999
.A MBRM4 20230523 ES DH2354/TAIRG    57/UGIRG -9999/PLIRG 30.08/UDIRG -9999/USIRG -9999/TWIRG -9999/WCIRG -9999
.E PBWM4 20230523 ES DH2348/TAIRG/DIN06/   58/   58
.E PBWM4 20230523 ES DH2348/PLIRG/DIN06/30.06/30.06
.A FTGM4 20230523 ES DH2354/TAIRG    59/UGIRG     7/PLIRG 30.06/UDIRG   227/USIRG     6/TWIRG -9999/WCIRG -9999
.E OSGN6 20230523 ES DH2348/TAIRG/DIN06/   64/   65
.E OSGN6 20230523 ES DH2348/PLIRG/DIN06/30.06/30.06
.E OSGN6 20230523 ES DH2348/USIRG/DIN06/    8/    9
.E OSGN6 20230523 ES DH2348/UDIRG/DIN06/  167/  174
.E OSGN6 20230523 ES DH2348/UGIRG/DIN06/   10/   12
.E RCRN6 20230523 ES DH2348/TAIRG/DIN06/   64/   64
.E RCRN6 20230523 ES DH2348/PLIRG/DIN06/30.07/30.07
.A NIAN6 20230523 ES DH2354/TAIRP    60/UGIRP -9999/PLIRP 30.06/UDIRP -9999/USIRP -9999/TWIRP -9999/WCIRP -9999
.E NIAN6 20230523 ES DH2348/TAIRG/DIN06/   61/   60
.E NIAN6 20230523 ES DH2348/PLIRG/DIN06/30.07/30.06
.E BUFN6 20230523 ES DH2354/TAIRG/DIN06/   60/   60
.E BUFN6 20230523 ES DH2354/PLIRG/DIN06/30.09/30.09
.E BUFN6 20230523 ES DH2354/USIRG/DIN06/    2/    2
.E BUFN6 20230523 ES DH2354/UDIRG/DIN06/  273/  247
.E BUFN6 20230523 ES DH2354/UGIRG/DIN06/    2/    3
.E BUFN6 20230523 ES DH2354/TWIRG/DIN06/   59/   59
.E PSTN6 20230523 ES DH2348/TAIRG/DIN06/   62/   62
.E PSTN6 20230523 ES DH2348/PLIRG/DIN06/30.10/30.10
.E EREP1 20230523 ES DH2354/USIRG/DIN06/    3/    3
.E EREP1 20230523 ES DH2354/UDIRG/DIN06/  170/  182
.E EREP1 20230523 ES DH2354/UGIRG/DIN06/    6/    5
.E FAIO1 20230523 ES DH2354/TAIRG/DIN06/   64/   64
.E FAIO1 20230523 ES DH2354/PLIRG/DIN06/30.06/30.06
.E FAIO1 20230523 ES DH2354/USIRG/DIN06/    8/    6
.E FAIO1 20230523 ES DH2354/UDIRG/DIN06/  153/  159
.E FAIO1 20230523 ES DH2354/UGIRG/DIN06/    9/    8
.E FAIO1 20230523 ES DH2354/TWIRG/DIN06/   57/   57
.E CNDO1 20230523 ES DH2354/TAIRG/DIN06/   63/-9999
.E CNDO1 20230523 ES DH2354/PLIRG/DIN06/30.06/-9999
.E CNDO1 20230523 ES DH2354/USIRG/DIN06/    1/    0
.E CNDO1 20230523 ES DH2354/UDIRG/DIN06/  158/  338
.E CNDO1 20230523 ES DH2354/UGIRG/DIN06/    4/    1
.E CNDO1 20230523 ES DH2354/TWIRG/DIN06/   55/-9999
.E MRHO1 20230523 ES DH2354/TAIRP/DIN06/   64/   64
.E MRHO1 20230523 ES DH2354/PLIRP/DIN06/30.08/30.08
.E MRHO1 20230523 ES DH2354/USIRP/DIN06/    4/    1
.E MRHO1 20230523 ES DH2354/UDIRP/DIN06/  109/  125
.E MRHO1 20230523 ES DH2354/UGIRP/DIN06/    4/    5
.E MRHO1 20230523 ES DH2354/TWIRP/DIN06/   61/   61
.A MRHO1 20230523 ES DH2354/TAIRG    64/UGIRG     4/PLIRG 30.08/UDIRG   109/USIRG     4/TWIRG    61/WCIRG -9999
.A THRO1 20230523 ES DH2354/TAIRG    63/UGIRG     4/PLIRG 30.09/UDIRG    62/USIRG     2/TWIRG -9999/WCIRG -9999
.A HRBM4 20230523 ES DH2354/TAIRG    61/UGIRG     5/PLIRG 30.03/UDIRG   224/USIRG     5/TWIRG    52/WCIRG -9999
.E LPNM4 20230523 ES DH2354/TAIRP/DIN06/   59/   59
.E LPNM4 20230523 ES DH2354/PLIRP/DIN06/30.09/30.09
.E LPNM4 20230523 ES DH2354/USIRP/DIN06/    5/    6
.E LPNM4 20230523 ES DH2354/UDIRP/DIN06/   55/   54
.E LPNM4 20230523 ES DH2354/UGIRP/DIN06/   13/   13
.E LPNM4 20230523 ES DH2354/TWIRP/DIN06/   50/   50
.E LPNM4 20230523 ES DH2354/TAIRG/DIN06/   59/   59
.E LPNM4 20230523 ES DH2354/PLIRG/DIN06/30.09/30.09
.E LPNM4 20230523 ES DH2354/USIRG/DIN06/    5/    6
.E LPNM4 20230523 ES DH2354/UDIRG/DIN06/   55/   54
.E LPNM4 20230523 ES DH2354/UGIRG/DIN06/   13/   13
.E LPNM4 20230523 ES DH2354/TWIRG/DIN06/   50/   50
.A MACM4 20230523 ES DH2354/TAIRG    55/UGIRG    12/PLIRG 30.12/UDIRG    18/USIRG     9/TWIRG    50/WCIRG -9999
.A DTLM4 20230523 ES DH2354/TAIRG    56/UGIRG    11/PLIRG 30.11/UDIRG   345/USIRG     7/TWIRG    47/WCIRG -9999
.A RCKM4 20230523 ES DH2354/TAIRG -9999/UGIRG    12/PLIRG 30.11/UDIRG   308/USIRG     8/TWIRG    46/WCIRG -9999
.E WNEM4 20230523 ES DH2348/TAIRG/DIN06/   53/   52
.E WNEM4 20230523 ES DH2348/PLIRG/DIN06/30.12/30.12
.E WNEM4 20230523 ES DH2348/USIRG/DIN06/    8/    5
.E WNEM4 20230523 ES DH2348/UDIRG/DIN06/  324/  318
.E WNEM4 20230523 ES DH2348/UGIRG/DIN06/    9/   10
.E WNEM4 20230523 ES DH2348/TWIRG/DIN06/   44/   44
.A LTRM4 20230523 ES DH2354/TAIRG    55/UGIRG    20/PLIRG 30.13/UDIRG    24/USIRG    16/TWIRG    43/WCIRG -9999
.E SWPM4 20230523 ES DH2354/TAIRP/DIN06/   54/   54
.E SWPM4 20230523 ES DH2354/PLIRP/DIN06/30.14/30.14
.E SWPM4 20230523 ES DH2354/USIRP/DIN06/   12/   10
.E SWPM4 20230523 ES DH2354/UDIRP/DIN06/   42/   52
.E SWPM4 20230523 ES DH2354/UGIRP/DIN06/   15/   16
.E SWPM4 20230523 ES DH2354/TWIRP/DIN06/   44/   44
.A SWPM4 20230523 ES DH2354/TAIRG    54/UGIRG    15/PLIRG 30.14/UDIRG    42/USIRG    12/TWIRG    44/WCIRG -9999
.E LDTM4 20230523 ES DH2348/TAIRG/DIN06/   57/   57
.E LDTM4 20230523 ES DH2348/PLIRG/DIN06/30.08/30.08
.E LDTM4 20230523 ES DH2348/USIRG/DIN06/    2/    2
.E LDTM4 20230523 ES DH2348/UDIRG/DIN06/  273/  257
.E LDTM4 20230523 ES DH2348/UGIRG/DIN06/    4/    4
.E HLNM4 20230523 ES DH2354/TAIRP/DIN06/   58/   58
.E HLNM4 20230523 ES DH2354/PLIRP/DIN06/30.09/30.09
.E HLNM4 20230523 ES DH2354/USIRP/DIN06/    2/    1
.E HLNM4 20230523 ES DH2354/UDIRP/DIN06/  141/   98
.E HLNM4 20230523 ES DH2354/UGIRP/DIN06/    2/    3
.E HLNM4 20230523 ES DH2354/TWIRP/DIN06/   51/   51
.E HLNM4 20230523 ES DH2348/TAIRG/DIN06/   59/   58
.E HLNM4 20230523 ES DH2348/PLIRG/DIN06/30.09/30.09
.E HLNM4 20230523 ES DH2348/USIRG/DIN06/    3/    2
.E HLNM4 20230523 ES DH2348/UDIRG/DIN06/  138/  141
.E HLNM4 20230523 ES DH2348/UGIRG/DIN06/    3/    2
.E HLNM4 20230523 ES DH2348/TWIRG/DIN06/   51/   51
.E CMTI2 20230523 CS DH2248/TAIRG/DIN06/   62/   62
.E CMTI2 20230523 CS DH2248/PLIRG/DIN06/30.06/30.06
.E CMTI2 20230523 CS DH2248/USIRG/DIN06/    1/    2
.E CMTI2 20230523 CS DH2248/UDIRG/DIN06/   31/  328
.E CMTI2 20230523 CS DH2248/UGIRG/DIN06/    2/    3
.E KWNW3 20230523 CS DH2254/TAIRG/DIN06/   66/   66
.E KWNW3 20230523 CS DH2254/PLIRG/DIN06/30.06/30.05
.E KWNW3 20230523 CS DH2254/USIRG/DIN06/    8/    9
.E KWNW3 20230523 CS DH2254/UDIRG/DIN06/  225/  223
.E KWNW3 20230523 CS DH2254/UGIRG/DIN06/   13/   13
.E GBWW3 20230523 CS DH2254/TAIRP/DIN06/   66/   67
.E GBWW3 20230523 CS DH2254/PLIRP/DIN06/30.08/30.08
.E GBWW3 20230523 CS DH2254/USIRP/DIN06/   10/    8
.E GBWW3 20230523 CS DH2254/UDIRP/DIN06/  340/  342
.E GBWW3 20230523 CS DH2254/UGIRP/DIN06/   12/   11
.E GBWW3 20230523 CS DH2248/TAIRG/DIN06/   67/   66
.E GBWW3 20230523 CS DH2248/PLIRG/DIN06/30.07/30.08
.E GBWW3 20230523 CS DH2248/USIRG/DIN06/    9/   10
.E GBWW3 20230523 CS DH2248/UDIRG/DIN06/  329/  340
.E GBWW3 20230523 CS DH2248/UGIRG/DIN06/   15/   12
.E MNMM4 20230523 CS DH2254/TAIRG/DIN06/   57/   57
.E MNMM4 20230523 CS DH2254/PLIRG/DIN06/30.11/30.12
.E MNMM4 20230523 CS DH2254/USIRG/DIN06/   17/   17
.E MNMM4 20230523 CS DH2254/UDIRG/DIN06/   10/   14
.E MNMM4 20230523 CS DH2254/UGIRG/DIN06/   19/   19
.E MNMM4 20230523 CS DH2254/TWIRG/DIN06/   60/   60
.E PNLM4 20230523 ES DH2354/TAIRP/DIN06/   53/   53
.E PNLM4 20230523 ES DH2354/PLIRP/DIN06/30.15/30.15
.E PNLM4 20230523 ES DH2354/USIRP/DIN06/    9/   11
.E PNLM4 20230523 ES DH2354/UDIRP/DIN06/    5/    8
.E PNLM4 20230523 ES DH2354/UGIRP/DIN06/   15/   17
.E PNLM4 20230523 ES DH2348/TAIRG/DIN06/   54/   53
.E PNLM4 20230523 ES DH2348/PLIRG/DIN06/30.15/30.15
.E PNLM4 20230523 ES DH2348/USIRG/DIN06/   12/    9
.E PNLM4 20230523 ES DH2348/UDIRG/DIN06/    9/    5
.E PNLM4 20230523 ES DH2348/UGIRG/DIN06/   19/   15
.E PNLM4 20230523 ES DH2348/TWIRG/DIN06/-9999/   53
.A PTIM4 20230523 ES DH2354/TAIRG    46/UGIRG     9/PLIRG 30.14/UDIRG   265/USIRG     6/TWIRG -9999/WCIRG -9999
.A MCGM4 20230523 ES DH2354/TAIRP    42/UGIRP    13/PLIRP 30.24/UDIRP   343/USIRP     4/TWIRP -9999/WCIRP -9999
.A MCGM4 20230523 ES DH2354/TAIRG    42/UGIRG    13/PLIRG 30.24/UDIRG   343/USIRG     4/TWIRG -9999/WCIRG -9999
.A DULM5 20230523 CS DH2254/TAIRG    45/UGIRG    21/PLIRG 30.29/UDIRG    42/USIRG    15/TWIRG    50/WCIRG -9999
.A GDMM5 20230523 CS DH2254/TAIRG    43/UGIRG -9999/PLIRG 30.29/UDIRG -9999/USIRG -9999/TWIRG    43/WCIRG -9999